NOAA 16 DEB, 42405

Orbit data source: Space-Track

NOAA 16 DEB, 42405 is space debris in SSO originally from a launch on Thu, 21 Sep 2000 UTC launched from the Air Force Western Test Range (AFWTR). Debris objects in space refer to the collection of defunct objects orbiting the Earth. Examples of debris include non-operational satellites, rocket bodies, and fragments generated from explosions, collisions, or faulty payload assembly.

Loading next visibility...
Identifier
42405, 2000-055SZ
Orbit
SSO
Country
Flag of USUS
Related business
Manufacturer
Unknown
Mission
Spacecraft
Bus & Motor
Unknown
Mass
Unknown
Launch date (UTC)
2000-09-21 (25 years ago)
Launch vehicle
Unknown
Launch site
Air Force Western Test Range (AFWTR)
Object type
Payload
Rocket body
Debris
Shape & HBR
Unknown shape, 0.1 m
Radar Cross Section
Small (<0.1 m²)

Expand to show TLE details & history
Last TLE update: 4 days ago

TLE from 4 days ago
0 NOAA 16 DEB
1 42405U 00055SZ  25351.45034716  .00007241  00000-0  18329-2 0  9990
2 42405  99.0338 223.8116 0026627 308.3051  51.5747 14.51022723507441
Epoch: 2025-12-17T10:48Z
TLE epoch observation values (Epoch: 2025-12-17T10:48:29.994Z)
Latitude
-0.00007°
Longitude
-24.6334°
Altitude
713.535 km
Speed
7.505 km/s
True Right ascension
14h 55m 14s
True Declination
0° 00' 00"
Sunlit
Object was in daylight at epoch
Visualization orbit readout
Latitude
Unknown
Longitude
Unknown
Altitude
Unknown
Speed
Unknown
Apparent Right ascension
Unknown
Apparent Declination
Unknown
Sunlit
N/A
Visualization observer readout
Local Sidereal Time
18:20:21
Azimuth
Unknown
Elevation
Unknown
Doppler factor
Unknown
Orbital elements
Apogee altitude
738.342 km
Perigee altitude
700.545 km
Semi-major axis
7,097.58 km
Eccentricity
0.00266
Inclination
99.0338°
RAAN
223.8116°
Arg. of periapsis
308.3051°
True anomaly
51.81423°
Mean anomaly
51.5747°
Eccentric anomaly
51.69442°
Mean motion
3.62976 °/min
Orbital period
99.18 mins
BSTAR
0.0018329
Loading maneuver chart data...
Computing Atmospheric mass density...
Loading historical data...
Loading historical data...
Loading historical data...
Loading historical data...
Loading historical data...
Loading historical data...
Loading historical data...

Documentation

Showing up to 5 results
|